Location: Haliburton Scout Reserve
(45.0900°N, 78.3200°W)
Time: 05:43:05
(UTC-04:00)

STARS - Visible Passes

Search period start: 16 May 2022 00:00
Search period end: 26 May 2022 00:00
Orbit: 622 x 637 km, 98.2° (Epoch: 16 May)

Date Brightness Start Highest point End Pass type
(mag) Time Alt. Az. Time Alt. Az. Time Alt. Az.
16 May ? 01:24:29 10° NNW 01:26:45 14° WNW 01:28:24 12° W visible
16 May ? 22:32:46 10° ENE 22:34:11 12° E 22:34:11 12° E visible
17 May ? 00:06:50 10° N 00:11:14 72° WNW 00:11:33 68° WSW visible
17 May ? 22:51:44 10° NE 22:54:42 19° E 22:54:42 19° E visible
18 May ? 00:27:11 10° N 00:31:24 44° WNW 00:32:04 41° W visible
18 May ? 23:11:23 10° NE 23:15:12 30° E 23:15:12 30° E visible
19 May ? 00:47:41 10° N 00:51:29 29° WNW 00:52:35 26° W visible
19 May ? 23:31:18 10° NNE 23:35:36 48° E 23:35:43 48° ESE visible
20 May ? 01:08:24 10° NNW 01:11:32 19° WNW 01:13:04 16° W visible
20 May ? 23:51:24 10° NNE 23:55:50 79° ESE 23:56:13 71° SSE visible
21 May ? 01:29:32 10° NNW 01:31:29 13° WNW 01:33:26 10° W visible
21 May ? 22:37:10 10° ENE 22:39:19 13° E 22:39:21 13° E visible
22 May ? 00:11:38 10° N 00:16:01 65° WNW 00:16:43 56° WSW visible
22 May ? 22:56:21 10° NE 22:59:44 21° E 22:59:50 21° E visible
23 May ? 00:32:00 10° N 00:36:09 40° WNW 00:37:12 35° WSW visible
23 May ? 23:16:03 10° NNE 23:20:05 33° E 23:20:19 33° ESE visible
24 May ? 00:52:31 10° N 00:56:13 26° WNW 00:57:41 22° W visible
24 May ? 23:36:00 10° NNE 23:40:21 53° E 23:40:48 51° SE visible
25 May ? 01:13:16 10° NNW 01:16:13 18° WNW 01:18:10 14° W visible
